Location: Naloco
(16.5478°S, 37.1017°E)
Time: 02:58:43
(UTC+00:00)

Cosmos 1408 Rocket - Pass Details

Date: 13 August 2020
Orbit: 600 x 632 km, 82.6° (Epoch: 23 September)

Event Time Altitude Azimuth Distance (km) Brightness Sun altitude
Rises 15:56:52 0° 191° (S) 2,923 7.0 -8.8°
Reaches altitude 10° 15:59:08 10° 195° (SSW) 2,014 6.2 -9.4°
Maximum altitude 16:03:30 57° 273° (W) 744 4.4 -10.4°
Drops below altitude 10° 16:07:52 10° 351° (N) 2,003 6.4 -11.4°
Sets 16:10:07 0° 356° (N) 2,905 7.2 -11.9°
